SCP
0 0 0 0 0 0 0 0 0 0 0 0 0 0 0 0 0 0 0 0 0 0 0 0 0 0 0 0 0 0 0 0 0 0 0 0 0 0 0 0 0 0 0 0
0 0 0 0 0 0 0 0 0 0 0 0 0 0 0 0 0 0 0 0 0 0 0 0 0 0 0 0 0 0 0 0 0 0 0 0 0 0 0 0 0 0 0 0
0 0 0 0 0 0 0 0 0 0 0 0 0 0 0 0 0 0 0 0 0 0 0 0 0 0 0 0 0 0 0 0 0 0 0 0 0 0 0 0 0 0 0 0
0 0 0 0 0 0 0 0 0 0 0 0 0 0 0 0 0 0 0 0 0 0 0 0 0 0 0 0 0 0 0 0 0 0 0 0 0 0 0 0 0 0 0 0
0 0 0 0 0 0 0 0 0 0 0 0 0 0 0 0 0 0 0 0 0 0 0 0 0 0 0 0 0 0 0 0 0 0 0 0 0 0 0 0 0 0 0 0
0 0 0 0 0 0 0 0 0 0 0 0 0 0 0 0 0 0 0 0 0 0 0 0 0 0 0 0 0 0 0 0 0 0 0 0 0 0 0 0 0 0 0 0
0 0 0 0 0 0 0 0 0 0 0 0 0 0 0 0 0 0 0 0 0 0 0 0 0 0 0 0 0 0 0 0 0 0 0 0 0 0 0 0 0 0 0 0
0 0 0 0 0 0 0 0 0 0 0 0 0 0 0 0 0 0 0 0 0 0 0 0 0 0 0 0 0 0 0 0 0 0 0 0 0 0 0 0 0 0 0 0
0 0 0 0 0 0 0 0 0 0 0 0 0 0 0 0 0 0 0 0 0 0 0 0 0 0 0 0 0 0 0 0 0 0 0 0 0 0 0 0 0 0 0 0
0 0 0 0 0 0 0 0 0 0 0 0 0 0 0 0 0 0 0 0 0 0 0 0 0 0 0 0 0 0 0 0 0 0 0 0 0 0 0 0 0 0 0 0
0 0 0 0 0 0 0 0 0 0 0 0 0 0 0 0 0 0 0 0 0 0 0 0 0 0 0 0 0 0 0 0 0 0 0 0 0 0 0 0 0 0 0 0
0 0 0 0 0 0 0 0 0 0 0 0 0 0 0 0 0 0 0 0 0 0 0 0 0 0 0 0 0 0 0 0 0 0 0 0 0 0 0 0 0 0 0 0
0 0 0 0 0 0 0 0 0 0 0 0 0 0 0 0 0 0 0 0 0 0 -0 0 0 0 0 0 0 0 0 0 0 0 0 0 0 0 0 0 0 0 0 0
0 0 0 0 0 0 0 0 0 0 0 0 0 0 0 0 0 0 0 0 0 0 -0 0 0 0 0 0 0 0 0 0 0 0 0 0 0 0 0 0 0 0 0 0
0 0 0 0 0 0 0 0 0 0 0 0 0 0 0 0 0 0 0 0 0 0 -0 0 0 0 0 0 0 0 0 0 0 0 0 0 0 0 0 0 0 0 0 0
0 0 0 0 0 0 0 0 0 0 0 0 0 0 0 0 0 0 0 0 0 0 0 0 0 0 0 0 0 0 0 0 0 0 0 0 0 0 0 0 0 0 0 0
0 0 0 0 0 0 0 0 0 0 0 0 0 0 0 0 0 0 0 0 0 0 0 0 0 0 0 0 0 0 0 0 0 0 0 0 0 0 0 0 0 0 0 0
0 0 0 0 0 0 0 0 0 0 0 0 0 0 0 0 0 0 0 0 0 0 0 0 0 0 0 0 0 0 0 0 0 0 0 0 0 0 0 0 0 0 0 0
0 0 0 0 0 0 0 0 0 0 0 0 0 0 0 0 0 0 0 0 0 0 0 0 0 0 0 0 0 0 0 0 0 0 0 0 0 0 0 0 0 0 0 0
0 0 0 0 0 0 0 0 0 0 0 0 0 0 0 0 0 0 0 0 0 0 0 0 0 0 0 0 0 0 0 0 0 0 0 0 0 0 0 0 0 0 0 0
0 0 0 0 0 0 0 0 0 0 0 0 0 0 0 0 0 0 0 0 0 0 0 0 0 0 0 0 0 0 0 0 0 0 0 0 0 0 0 0 0 0 0 0
0 0 0 0 0 0 0 0 0 0 0 0 0 0 0 0 0 0 0 0 0 0 0 0 0 0 0 0 0 0 0 0 0 0 0 0 0 0 0 0 0 0 0 0
0 0 0 0 0 0 0 0 0 0 0 0 0 0 0 0 0 0 0 0 0 0 0 0 0 0 0 0 0 0 0 0 0 0 0 0 0 0 0 0 0 0 0 0
0 0 0 0 0 0 0 0 0 0 0 0 0 0 0 0 0 0 0 0 0 0 0 0 0 0 0 0 0 0 0 0 0 0 0 0 0 0 0 0 0 0 0 0
0 0 0 0 0 0 0 0 0 0 0 0 0 0 0 0 0 0 0 0 0 0 0 0 0 0 0 0 0 0 0 0 0 0 0 0 0 0 0 0 0 0 0 0
0 0 0 0 0 0 0 0 0 0 0 0 0 0 0 0 0 0 0 0 0 0 0 0 0 0 0 0 0 0 0 0 0 0 0 0 0 0 0 0 0 0 0 0
Wind_Speed
6 4 7 9 11 10 9 10 13 12 11 11 12 11 9 8 11 14 11 5 4 10 11 14 15 14 13 14 14 13 11 7 3 2 2 1 1 1 1 2 3 5 5 6
4 9 11 8 6 6 7 10 12 11 8 8 10 11 11 13 15 11 6 2 7 10 12 15 15 14 14 14 13 13 13 11 7 3 2 2 1 1 1 2 2 3 4 5
9 4 1 2 6 8 9 10 9 9 9 7 10 9 9 8 5 1 5 10 13 13 13 12 13 13 13 14 14 13 14 13 11 8 4 4 4 3 3 2 1 1 3 3
7 3 1 4 8 7 9 6 5 6 5 5 4 7 5 9 4 4 9 12 12 12 11 11 11 12 13 12 11 12 14 14 13 10 7 5 3 2 2 1 0 1 2 3
5 6 4 5 6 5 4 2 3 6 6 7 6 9 7 9 4 8 10 11 10 10 10 10 10 10 10 10 10 10 12 13 13 12 11 8 5 4 3 3 3 1 1 3
6 1 4 4 1 1 3 4 7 7 2 5 6 7 5 1 6 9 9 9 9 8 8 8 8 7 8 9 9 10 11 12 12 12 12 11 9 7 6 5 3 2 1 2
6 6 4 1 1 2 2 1 3 3 3 6 3 3 5 2 7 12 12 10 8 7 7 6 7 7 8 9 9 9 11 12 12 11 11 11 10 9 8 6 5 4 2 2
4 4 6 4 3 0 2 1 3 4 5 5 5 7 5 4 8 11 11 10 8 7 6 6 6 6 6 7 8 9 10 10 10 10 9 9 10 7 6 7 6 6 5 4
4 1 4 3 1 1 1 3 2 3 5 6 8 6 1 5 8 9 9 8 7 6 5 5 5 5 5 6 7 8 8 8 9 9 8 8 8 8 8 8 7 6 7 7
1 4 2 3 1 2 3 2 2 2 4 7 7 8 5 4 8 8 7 7 6 4 4 4 4 4 5 5 5 6 6 7 7 7 7 6 6 7 7 6 8 8 8 8
1 2 3 2 6 5 5 4 5 5 5 5 5 6 3 5 8 9 7 6 4 3 3 3 3 4 4 5 5 4 4 5 5 5 5 5 5 6 6 6 7 7 7 8
2 2 5 7 6 6 7 8 7 7 8 7 7 7 6 8 7 7 6 4 3 2 2 3 3 3 4 3 3 3 3 3 3 4 5 5 5 5 5 6 6 7 7 8
2 3 3 6 5 2 1 2 2 3 4 6 9 6 3 5 4 5 5 4 3 2 1 1 2 2 2 2 2 2 1 1 2 3 4 4 4 5 5 6 6 7 7 7
3 3 6 7 7 7 6 7 6 5 6 9 11 13 9 7 6 6 5 4 3 3 2 2 1 1 1 1 2 3 3 2 2 3 4 5 5 5 5 6 6 6 7 7
2 4 6 10 12 11 12 14 13 12 12 15 17 18 16 7 3 3 3 2 2 2 3 2 2 2 3 3 3 4 4 4 3 4 5 6 6 6 6 6 7 7 7 8
1 3 3 7 9 10 15 18 17 17 17 19 19 18 3 4 5 4 3 1 1 2 2 2 2 4 5 5 5 5 5 5 4 5 7 7 7 8 8 8 8 8 8 8
3 3 3 6 5 5 13 15 16 14 12 12 13 4 4 3 3 3 2 3 3 3 3 3 4 5 5 5 5 5 5 4 5 6 8 8 9 10 10 9 9 9 9 9
5 5 3 4 1 11 13 5 5 6 6 4 1 3 3 1 1 2 4 5 4 3 3 4 4 4 4 3 2 2 3 5 6 8 9 9 10 11 11 11 11 10 9 10
9 7 5 4 7 10 9 4 1 3 6 1 3 4 2 1 3 5 4 0 2 3 4 4 4 4 3 3 3 3 5 6 7 8 8 8 8 9 10 12 13 11 11 12
4 6 6 6 6 9 6 2 2 2 6 4 5 5 3 2 3 5 4 4 5 5 4 3 2 3 3 4 4 5 6 7 7 8 9 9 9 10 12 13 14 13 13 15
4 5 8 9 8 9 4 4 4 4 8 5 5 6 6 6 7 7 6 6 6 4 1 3 3 3 4 5 6 7 7 8 8 10 11 12 11 12 13 14 14 14 16 18
9 7 8 7 7 10 4 6 7 7 4 6 6 7 7 7 7 7 7 6 3 1 3 4 4 4 4 5 6 8 9 10 11 11 13 12 12 12 12 14 15 15 16 18
8 9 7 9 9 6 9 8 8 5 6 7 8 8 8 8 8 7 6 3 1 2 2 3 4 5 5 4 5 8 11 12 12 11 12 12 13 11 11 13 15 14 13 14
7 8 7 6 8 8 8 9 9 9 10 10 9 8 7 8 8 6 4 2 0 2 2 3 4 6 6 5 5 5 10 11 9 11 13 13 13 13 12 11 12 12 13 14
9 6 8 12 12 11 12 13 12 11 10 10 8 7 8 7 7 5 3 1 1 2 3 3 5 7 8 7 7 7 8 8 10 12 14 14 13 13 12 12 12 15 14 17
15 14 13 12 11 10 10 10 9 9 9 8 7 7 5 5 4 2 2 1 1 2 3 5 6 7 8 8 9 8 7 8 11 13 13 12 12 12 13 13 14 22 26 31
Wind_Direction
174 213 216 222 226 248 287 295 291 289 293 288 280 281 290 291 282 278 282 298 63 72 58 46 38 30 26 23 20 16 12 14 64 93 116 141 201 195 176 156 154 163 169 181
154 230 241 262 288 297 291 288 286 287 292 304 297 291 283 268 264 270 281 10 68 72 53 43 37 30 27 23 20 21 16 13 26 51 77 85 71 82 136 125 130 151 164 177
220 251 1 265 267 268 267 267 280 298 320 291 284 277 256 266 255 12 61 70 66 63 55 43 36 31 27 25 22 23 19 19 19 26 41 50 41 25 20 33 88 150 163 180
240 281 321 248 257 260 274 277 304 315 316 287 309 291 237 260 240 98 74 70 65 60 56 48 40 34 30 23 20 27 25 23 18 20 30 40 41 23 353 348 143 162 179 198
231 173 189 227 243 243 257 352 299 274 266 272 247 257 263 230 165 101 90 81 72 64 59 52 44 38 32 24 23 26 30 29 22 21 24 27 24 12 2 8 17 25 210 214
264 151 208 232 280 35 336 314 265 243 227 263 241 236 286 354 138 130 110 95 84 74 63 57 50 42 35 28 29 28 31 31 25 25 24 23 18 9 5 1 350 327 270 229
235 200 196 165 228 172 210 274 325 309 214 232 10 291 267 36 113 133 127 110 93 81 69 57 46 41 36 29 29 32 31 29 23 24 24 20 14 10 11 3 350 338 314 265
272 251 158 177 217 87 192 220 221 255 264 302 339 260 266 85 90 100 105 103 96 87 80 69 57 50 44 36 31 32 32 27 21 21 18 18 16 12 7 2 358 350 339 322
257 216 117 133 101 29 285 234 249 250 280 279 255 250 238 121 113 108 106 101 96 91 84 76 66 56 47 43 39 35 33 27 21 17 11 15 14 10 6 3 2 356 348 341
335 283 277 122 139 196 223 309 59 178 238 246 252 258 266 160 144 130 120 114 109 104 97 86 74 66 56 49 46 43 38 27 18 13 8 8 8 4 1 0 0 354 346 342
112 251 270 212 208 217 194 194 208 215 221 238 254 257 29 78 141 139 129 123 119 111 99 87 75 67 60 47 43 43 38 27 10 4 355 354 357 356 354 354 351 345 340 338
183 218 258 258 263 263 250 240 226 236 241 240 255 263 56 77 94 118 131 139 141 134 99 85 76 64 57 41 27 31 26 25 360 344 337 336 343 345 343 341 337 333 331 329
117 174 266 295 264 220 281 342 332 308 282 260 265 266 125 125 141 165 175 179 182 189 162 120 92 70 57 24 350 348 345 337 320 319 317 317 322 325 321 321 321 321 319 316
56 218 208 228 265 315 303 282 259 240 252 263 260 276 279 269 239 212 198 196 195 197 199 199 158 59 350 320 314 315 309 290 288 300 301 298 295 295 294 295 297 299 301 301
41 256 256 268 279 290 289 282 277 266 262 266 273 276 283 292 266 178 152 142 173 222 234 226 200 241 269 276 280 286 291 292 291 295 294 288 286 286 284 283 283 285 286 286
97 265 299 276 269 275 274 269 267 269 266 267 271 275 336 61 63 75 81 73 280 284 287 273 245 248 249 250 255 262 269 273 276 281 282 284 288 287 284 282 282 284 284 283
190 192 211 255 264 282 259 245 246 246 246 260 272 280 81 59 50 39 2 306 290 293 296 291 277 265 257 246 245 257 265 276 282 280 281 284 284 283 281 280 279 280 282 283
202 189 211 257 270 236 239 233 228 258 266 284 297 144 134 119 343 303 269 260 265 282 292 291 287 288 285 286 302 309 299 289 279 276 275 276 277 279 282 281 281 282 284 285
213 195 204 214 233 261 267 261 263 258 271 229 160 161 165 281 307 284 278 337 312 291 278 270 273 286 317 353 1 335 306 292 285 281 283 288 292 293 294 291 290 291 291 288
195 202 208 214 225 238 239 126 88 38 273 217 167 179 219 286 287 273 302 311 293 279 271 280 316 356 10 6 359 330 309 304 301 309 315 318 319 316 310 304 302 300 295 290
169 194 213 226 237 251 243 143 121 209 250 187 172 200 225 238 238 259 281 277 269 270 316 24 22 16 13 9 355 325 315 314 324 329 326 324 326 320 311 306 303 301 296 292
179 193 204 200 218 248 192 148 193 221 179 194 213 227 239 250 263 272 275 274 282 0 43 34 10 353 3 5 352 325 318 325 329 328 323 317 311 306 303 298 296 294 291 288
209 206 198 196 210 219 179 194 216 225 234 241 244 251 250 257 263 266 269 275 346 60 40 36 9 335 338 2 359 324 321 326 325 320 310 305 301 296 293 291 293 292 288 285
226 220 228 243 244 249 240 235 234 235 242 251 252 252 248 254 260 261 257 257 344 36 34 19 348 321 319 340 339 321 320 322 315 308 306 305 303 299 294 290 290 289 288 286
225 226 229 238 243 252 253 252 252 254 254 255 252 246 244 248 250 242 229 186 71 7 8 351 325 310 312 323 319 316 314 314 309 306 305 304 300 298 296 292 286 287 278 278
233 234 237 242 237 238 245 242 237 237 242 242 243 244 226 214 224 199 178 124 64 354 342 318 308 306 309 312 309 310 308 305 305 307 306 304 302 299 297 296 294 291 292 293